^^
Grace C. Lehan Memorial Weather Station Historical Data
Daily Summary for September 26, 2021 Units:  Both    English   Metric
Daily Weekly Monthly Yearly
  High: Low: Average:
Temperature: 85.6 °F /  29.8 °C 66.8 °F /  19.3 °C 76 °F /  24.4 °C
Dew Point: 73.7 °F /  23.2 °C 63.8 °F /  17.7 °C 69.8 °F /  21 °C
Humidity: 94% 65.4% 82%
Wind Speed: 3.4mph /  5.5km/h - 0.7mph /  1.1km/h
Wind Gust: 13mph /  20.9km/h - -
Wind- - SSW
Pressure: 30.24 in /  1023.9 hPa 30.12 in /  1019.9 hPa -
Precipitation: 0.00 in /  0 mm    
 
 
Tabular Data for September 26, 2021
Time Temperature Dew Point Pressure Wind Wind Speed Wind Gust Humidity Rainfall Rate (Hourly) solar
00:09 66.8 °F /  19.3 °C 63.8 °F /  17.7 °C 30.23in /  1023.6hPa South 0.1mph /  0.2km/h 1mph /  1.6km/h 90% 0.00in /  0mm 0 W/m2
00:14 66.9 °F /  19.4 °C 63.9 °F /  17.7 °C 30.23in /  1023.6hPa Calm   1mph /  1.6km/h 90% 0.00in /  0mm 0 W/m2
00:19 66.9 °F /  19.4 °C 63.9 °F /  17.7 °C 30.22in /  1023.2hPa South 0.1mph /  0.2km/h 1mph /  1.6km/h 90% 0.00in /  0mm 0 W/m2
00:24 66.9 °F /  19.4 °C 63.9 °F /  17.7 °C 30.22in /  1023.2hPa South 0.3mph /  0.5km/h 5mph /  8km/h 90% 0.00in /  0mm 0 W/m2
00:29 67 °F /  19.4 °C 64 °F /  17.8 °C 30.22in /  1023.2hPa Calm   5mph /  8km/h 90% 0.00in /  0mm 0 W/m2
00:34 67 °F /  19.4 °C 64 °F /  17.8 °C 30.22in /  1023.2hPa South 0.1mph /  0.2km/h 5mph /  8km/h 90% 0.00in /  0mm 0 W/m2
00:39 67 °F /  19.4 °C 63.9 °F /  17.7 °C 30.22in /  1023.2hPa Calm   3mph /  4.8km/h 90% 0.00in /  0mm 0 W/m2
00:44 67 °F /  19.4 °C 64 °F /  17.8 °C 30.22in /  1023.2hPa Calm   3mph /  4.8km/h 90% 0.00in /  0mm 0 W/m2
00:49 67 °F /  19.4 °C 63.9 °F /  17.7 °C 30.22in /  1023.2hPa Calm   3mph /  4.8km/h 90% 0.00in /  0mm 0 W/m2
00:54 67 °F /  19.4 °C 63.9 °F /  17.7 °C 30.22in /  1023.2hPa Calm   3mph /  4.8km/h 90% 0.00in /  0mm 0 W/m2
00:59 66.9 °F /  19.4 °C 63.9 °F /  17.7 °C 30.22in /  1023.2hPa Calm   3mph /  4.8km/h 90% 0.00in /  0mm 0 W/m2
01:04 67 °F /  19.4 °C 63.9 °F /  17.7 °C 30.22in /  1023.2hPa SSW 0.2mph /  0.3km/h 5mph /  8km/h 90% 0.00in /  0mm 0 W/m2
01:09 67 °F /  19.4 °C 63.9 °F /  17.7 °C 30.22in /  1023.2hPa Calm   5mph /  8km/h 90% 0.00in /  0mm 0 W/m2
01:14 67 °F /  19.4 °C 63.9 °F /  17.7 °C 30.22in /  1023.2hPa Calm   5mph /  8km/h 90% 0.00in /  0mm 0 W/m2
01:19 67 °F /  19.4 °C 64 °F /  17.8 °C 30.22in /  1023.2hPa Calm   5mph /  8km/h 90% 0.00in /  0mm 0 W/m2
01:24 67 °F /  19.4 °C 64 °F /  17.8 °C 30.22in /  1023.2hPa Calm   5mph /  8km/h 90% 0.00in /  0mm 0 W/m2
01:29 67 °F /  19.4 °C 64 °F /  17.8 °C 30.22in /  1023.2hPa Calm   5mph /  8km/h 90% 0.00in /  0mm 0 W/m2
01:34 67.1 °F /  19.5 °C 64.1 °F /  17.8 °C 30.22in /  1023.2hPa Calm   5mph /  8km/h 90% 0.00in /  0mm 0 W/m2
01:39 67.1 °F /  19.5 °C 64.1 °F /  17.8 °C 30.22in /  1023.2hPa Calm     90% 0.00in /  0mm 0 W/m2
01:44 67.1 °F /  19.5 °C 64.1 °F /  17.8 °C 30.22in /  1023.2hPa Calm     90% 0.00in /  0mm 0 W/m2
01:49 67.1 °F /  19.5 °C 64.1 °F /  17.8 °C 30.22in /  1023.2hPa Calm   2mph /  3.2km/h 90% 0.00in /  0mm 0 W/m2
01:54 67.2 °F /  19.6 °C 64.1 °F /  17.8 °C 30.21in /  1022.9hPa Calm   2mph /  3.2km/h 90% 0.00in /  0mm 0 W/m2
01:59 67.2 °F /  19.6 °C 64.2 °F /  17.9 °C 30.21in /  1022.9hPa Calm   2mph /  3.2km/h 90% 0.00in /  0mm 0 W/m2
02:04 67.2 °F /  19.6 °C 64.2 °F /  17.9 °C 30.21in /  1022.9hPa Calm   2mph /  3.2km/h 90% 0.00in /  0mm 0 W/m2
02:09 67.2 °F /  19.6 °C 64.2 °F /  17.9 °C 30.21in /  1022.9hPa Calm     90% 0.00in /  0mm 0 W/m2
02:14 67.2 °F /  19.6 °C 64.2 °F /  17.9 °C 30.21in /  1022.9hPa Calm     90% 0.00in /  0mm 0 W/m2
02:15 67.2 °F /  19.6 °C 64.2 °F /  17.9 °C 30.21in /  1022.9hPa Calm     90% 0.00in /  0mm 0 W/m2
02:30 67.3 °F /  19.6 °C 64.3 °F /  17.9 °C 30.21in /  1022.9hPa Calm     90% 0.00in /  0mm 0 W/m2
03:00 67.5 °F /  19.7 °C 64.5 °F /  18.1 °C 30.21in /  1022.9hPa Calm     90% 0.00in /  0mm 0 W/m2
03:30 67.9 °F /  19.9 °C 64.9 °F /  18.3 °C 30.20in /  1022.6hPa Calm   1mph /  1.6km/h 90% 0.00in /  0mm 0 W/m2
04:04 67.9 °F /  19.9 °C 64.9 °F /  18.3 °C 30.20in /  1022.6hPa Calm     90% 0.00in /  0mm 0 W/m2
04:09 67.9 °F /  19.9 °C 64.9 °F /  18.3 °C 30.21in /  1022.9hPa Calm     90% 0.00in /  0mm 0 W/m2
04:14 67.9 °F /  19.9 °C 64.9 °F /  18.3 °C 30.21in /  1022.9hPa Calm     90% 0.00in /  0mm 0 W/m2
04:19 67.9 °F /  19.9 °C 65 °F /  18.3 °C 30.21in /  1022.9hPa Calm     90.4% 0.00in /  0mm 0 W/m2
04:24 67.9 °F /  19.9 °C 65.2 °F /  18.4 °C 30.21in /  1022.9hPa Calm     91% 0.00in /  0mm 0 W/m2
04:29 67.9 °F /  19.9 °C 65.2 °F /  18.4 °C 30.21in /  1022.9hPa Calm     91% 0.00in /  0mm 0 W/m2
04:34 67.9 °F /  19.9 °C 65.2 °F /  18.4 °C 30.21in /  1022.9hPa Calm     91% 0.00in /  0mm 0 W/m2
04:39 67.9 °F /  19.9 °C 65.2 °F /  18.4 °C 30.21in /  1022.9hPa Calm     91% 0.00in /  0mm 0 W/m2
04:44 68 °F /  20 °C 65.2 °F /  18.4 °C 30.21in /  1022.9hPa Calm     91% 0.00in /  0mm 0 W/m2
04:49 68 °F /  20 °C 65.3 °F /  18.5 °C 30.21in /  1022.9hPa Calm     91% 0.00in /  0mm 0 W/m2
04:54 68 °F /  20 °C 65.3 °F /  18.5 °C 30.22in /  1023.2hPa Calm     91% 0.00in /  0mm 0 W/m2
04:59 68 °F /  20 °C 65.3 °F /  18.5 °C 30.22in /  1023.2hPa Calm     91% 0.00in /  0mm 0 W/m2
05:04 68 °F /  20 °C 65.3 °F /  18.5 °C 30.22in /  1023.2hPa Calm     91% 0.00in /  0mm 0 W/m2
05:09 68.1 °F /  20.1 °C 65.4 °F /  18.6 °C 30.22in /  1023.2hPa Calm     91% 0.00in /  0mm 0 W/m2
05:14 68.1 °F /  20.1 °C 65.4 °F /  18.6 °C 30.22in /  1023.2hPa Calm     91% 0.00in /  0mm 0 W/m2
05:19 68.1 °F /  20.1 °C 65.4 °F /  18.6 °C 30.22in /  1023.2hPa Calm     91% 0.00in /  0mm 0 W/m2
05:24 68.2 °F /  20.1 °C 65.5 °F /  18.6 °C 30.22in /  1023.2hPa Calm     91% 0.00in /  0mm 0 W/m2
05:29 68.2 °F /  20.1 °C 65.5 °F /  18.6 °C 30.22in /  1023.2hPa Calm     91% 0.00in /  0mm 0 W/m2
05:34 68.3 °F /  20.2 °C 65.6 °F /  18.7 °C 30.22in /  1023.2hPa Calm     91% 0.00in /  0mm 0 W/m2
05:39 68.4 °F /  20.2 °C 65.7 °F /  18.7 °C 30.22in /  1023.2hPa Calm     91% 0.00in /  0mm 0 W/m2
05:44 68.4 °F /  20.2 °C 66 °F /  18.9 °C 30.22in /  1023.2hPa Calm     91.9% 0.00in /  0mm 0 W/m2
05:49 68.5 °F /  20.3 °C 66.1 °F /  18.9 °C 30.22in /  1023.2hPa Calm     92% 0.00in /  0mm 0 W/m2
05:54 68.5 °F /  20.3 °C 66.1 °F /  18.9 °C 30.22in /  1023.2hPa Calm     92% 0.00in /  0mm 5 W/m2
05:59 68.5 °F /  20.3 °C 66.1 °F /  18.9 °C 30.22in /  1023.2hPa Calm     92% 0.00in /  0mm 5 W/m2
06:04 68.5 °F /  20.3 °C 66.1 °F /  18.9 °C 30.22in /  1023.2hPa Calm     92% 0.00in /  0mm 5 W/m2
06:09 68.6 °F /  20.3 °C 66.2 °F /  19 °C 30.22in /  1023.2hPa Calm     92% 0.00in /  0mm 7 W/m2
06:14 68.6 °F /  20.3 °C 66.2 °F /  19 °C 30.22in /  1023.2hPa Calm     92% 0.00in /  0mm 7 W/m2
06:19 68.6 °F /  20.3 °C 66.2 °F /  19 °C 30.23in /  1023.6hPa Calm     92% 0.00in /  0mm 16 W/m2
06:24 68.7 °F /  20.4 °C 66.3 °F /  19.1 °C 30.23in /  1023.6hPa Calm     92% 0.00in /  0mm 16 W/m2
06:29 68.7 °F /  20.4 °C 66.3 °F /  19.1 °C 30.23in /  1023.6hPa Calm     92% 0.00in /  0mm 32 W/m2
06:34 68.8 °F /  20.4 °C 66.3 °F /  19.1 °C 30.23in /  1023.6hPa Calm     92% 0.00in /  0mm 32 W/m2
06:39 68.8 °F /  20.4 °C 66.5 °F /  19.2 °C 30.24in /  1023.9hPa Calm     92.4% 0.00in /  0mm 30 W/m2
06:44 68.8 °F /  20.4 °C 66.7 °F /  19.3 °C 30.24in /  1023.9hPa Calm     93% 0.00in /  0mm 37 W/m2
06:49 68.9 °F /  20.5 °C 66.8 °F /  19.3 °C 30.23in /  1023.6hPa Calm     93% 0.00in /  0mm 47 W/m2
06:54 68.9 °F /  20.5 °C 66.8 °F /  19.3 °C 30.23in /  1023.6hPa Calm     93% 0.00in /  0mm 47 W/m2
06:59 69 °F /  20.6 °C 66.9 °F /  19.4 °C 30.23in /  1023.6hPa Calm     93% 0.00in /  0mm 47 W/m2
07:04 69 °F /  20.6 °C 66.9 °F /  19.4 °C 30.23in /  1023.6hPa Calm     93% 0.00in /  0mm 46 W/m2
07:09 69.1 °F /  20.6 °C 67 °F /  19.4 °C 30.23in /  1023.6hPa Calm     93% 0.00in /  0mm 69 W/m2
07:14 69.2 °F /  20.7 °C 67.1 °F /  19.5 °C 30.23in /  1023.6hPa Calm     93% 0.00in /  0mm 86 W/m2
07:19 69.3 °F /  20.7 °C 67.3 °F /  19.6 °C 30.23in /  1023.6hPa Calm   1mph /  1.6km/h 93.4% 0.00in /  0mm 86 W/m2
07:24 69.4 °F /  20.8 °C 67.6 °F /  19.8 °C 30.23in /  1023.6hPa Calm   1mph /  1.6km/h 94% 0.00in /  0mm 76 W/m2
07:29 69.5 °F /  20.8 °C 67.7 °F /  19.8 °C 30.23in /  1023.6hPa Calm   1mph /  1.6km/h 94% 0.00in /  0mm 69 W/m2
07:34 69.6 °F /  20.9 °C 67.5 °F /  19.7 °C 30.23in /  1023.6hPa Calm   1mph /  1.6km/h 93.1% 0.00in /  0mm 69 W/m2
07:39 69.7 °F /  20.9 °C 67.6 °F /  19.8 °C 30.23in /  1023.6hPa Calm     93% 0.00in /  0mm 62 W/m2
07:44 69.8 °F /  21 °C 67.7 °F /  19.8 °C 30.23in /  1023.6hPa Calm     93% 0.00in /  0mm 72 W/m2
07:49 69.9 °F /  21.1 °C 67.8 °F /  19.9 °C 30.23in /  1023.6hPa Calm     93% 0.00in /  0mm 79 W/m2
07:54 70.1 °F /  21.2 °C 68 °F /  20 °C 30.23in /  1023.6hPa Calm     93% 0.00in /  0mm 69 W/m2
07:59 70.3 °F /  21.3 °C 68.1 °F /  20.1 °C 30.23in /  1023.6hPa Calm     93% 0.00in /  0mm 72 W/m2
08:09 70.6 °F /  21.4 °C 68.2 °F /  20.1 °C 30.23in /  1023.6hPa Calm     92% 0.00in /  0mm 88 W/m2
08:14 70.8 °F /  21.6 °C 68.3 °F /  20.2 °C 30.23in /  1023.6hPa Calm     92% 0.00in /  0mm 127 W/m2
08:19 71 °F /  21.7 °C 68.6 °F /  20.3 °C 30.23in /  1023.6hPa Calm   1mph /  1.6km/h 92% 0.00in /  0mm 128 W/m2
08:24 71.3 °F /  21.8 °C 68.8 °F /  20.4 °C 30.22in /  1023.2hPa WSW 0.1mph /  0.2km/h 4mph /  6.4km/h 91.8% 0.00in /  0mm 142 W/m2
08:29 71.6 °F /  22 °C 68.8 °F /  20.4 °C 30.23in /  1023.6hPa Calm   4mph /  6.4km/h 91% 0.00in /  0mm 169 W/m2
08:34 71.8 °F /  22.1 °C 69 °F /  20.6 °C 30.23in /  1023.6hPa Calm   4mph /  6.4km/h 90.8% 0.00in /  0mm 146 W/m2
08:39 72.2 °F /  22.3 °C 69.4 °F /  20.8 °C 30.22in /  1023.2hPa WSW 0.1mph /  0.2km/h 3mph /  4.8km/h 90.8% 0.00in /  0mm 178 W/m2
08:44 72.5 °F /  22.5 °C 69.4 °F /  20.8 °C 30.22in /  1023.2hPa Calm   3mph /  4.8km/h 90% 0.00in /  0mm 207 W/m2
08:49 72.9 °F /  22.7 °C 69.7 °F /  20.9 °C 30.22in /  1023.2hPa WSW 0.4mph /  0.6km/h 5mph /  8km/h 89.7% 0.00in /  0mm 207 W/m2
08:54 73.3 °F /  22.9 °C 69.6 °F /  20.9 °C 30.22in /  1023.2hPa WSW 0.2mph /  0.3km/h 5mph /  8km/h 88.4% 0.00in /  0mm 288 W/m2
08:59 73.6 °F /  23.1 °C 69.7 °F /  20.9 °C 30.22in /  1023.2hPa SW 0.8mph /  1.3km/h 6mph /  9.7km/h 87.6% 0.00in /  0mm 214 W/m2
09:04 73.9 °F /  23.3 °C 69.8 °F /  21 °C 30.22in /  1023.2hPa SW 1.3mph /  2.1km/h 7mph /  11.3km/h 86.8% 0.00in /  0mm 276 W/m2
09:09 74.3 °F /  23.5 °C 69.7 °F /  20.9 °C 30.22in /  1023.2hPa WSW 0.8mph /  1.3km/h 7mph /  11.3km/h 85.8% 0.00in /  0mm 271 W/m2
09:14 74.6 °F /  23.7 °C 69.8 °F /  21 °C 30.22in /  1023.2hPa WSW 1.8mph /  2.9km/h 13mph /  20.9km/h 85% 0.00in /  0mm 234 W/m2
09:19 74.9 °F /  23.8 °C 69.9 °F /  21.1 °C 30.22in /  1023.2hPa SSW 0.8mph /  1.3km/h 13mph /  20.9km/h 84.5% 0.00in /  0mm 214 W/m2
09:24 75.1 °F /  23.9 °C 69.9 °F /  21.1 °C 30.22in /  1023.2hPa SSW 0.1mph /  0.2km/h 13mph /  20.9km/h 84% 0.00in /  0mm 225 W/m2
09:29 75.4 °F /  24.1 °C 70.3 °F /  21.3 °C 30.21in /  1022.9hPa SW 0.7mph /  1.1km/h 13mph /  20.9km/h 84.3% 0.00in /  0mm 295 W/m2
09:34 75.6 °F /  24.2 °C 70.2 °F /  21.2 °C 30.21in /  1022.9hPa SW 0.8mph /  1.3km/h 13mph /  20.9km/h 83.3% 0.00in /  0mm 241 W/m2
09:39 76 °F /  24.4 °C 70.5 °F /  21.4 °C 30.21in /  1022.9hPa SW 1.2mph /  1.9km/h 7mph /  11.3km/h 83.3% 0.00in /  0mm 292 W/m2
09:44 76.2 °F /  24.6 °C 70.7 °F /  21.5 °C 30.21in /  1022.9hPa SSW 0.1mph /  0.2km/h 7mph /  11.3km/h 82.9% 0.00in /  0mm 322 W/m2
09:49 76.6 °F /  24.8 °C 70.8 °F /  21.6 °C 30.21in /  1022.9hPa WSW 1.1mph /  1.8km/h 7mph /  11.3km/h 82.3% 0.00in /  0mm 297 W/m2
09:54 76.9 °F /  24.9 °C 70.8 °F /  21.6 °C 30.21in /  1022.9hPa SW 0.7mph /  1.1km/h 7mph /  11.3km/h 81.4% 0.00in /  0mm 323 W/m2
09:59 77.3 °F /  25.2 °C 70.9 °F /  21.6 °C 30.21in /  1022.9hPa SW 0.8mph /  1.3km/h 7mph /  11.3km/h 80.8% 0.00in /  0mm 786 W/m2
10:04 78 °F /  25.6 °C 71.5 °F /  21.9 °C 30.21in /  1022.9hPa Calm   7mph /  11.3km/h 80.5% 0.00in /  0mm 452 W/m2
10:09 78.5 °F /  25.8 °C 71.6 °F /  22 °C 30.21in /  1022.9hPa WSW 0.1mph /  0.2km/h 3mph /  4.8km/h 79.2% 0.00in /  0mm 858 W/m2
10:14 79.3 °F /  26.3 °C 72.2 °F /  22.3 °C 30.21in /  1022.9hPa SW 0.5mph /  0.8km/h 6mph /  9.7km/h 79% 0.00in /  0mm 858 W/m2
10:19 80 °F /  26.7 °C 72.3 °F /  22.4 °C 30.21in /  1022.9hPa WSW 1.2mph /  1.9km/h 6mph /  9.7km/h 77.3% 0.00in /  0mm 369 W/m2
10:24 80.5 °F /  26.9 °C 71.8 °F /  22.1 °C 30.21in /  1022.9hPa SW 0.6mph /  1km/h 7mph /  11.3km/h 75% 0.00in /  0mm 381 W/m2
10:29 80.6 °F /  27 °C 72 °F /  22.2 °C 30.21in /  1022.9hPa WSW 0.6mph /  1km/h 7mph /  11.3km/h 75.2% 0.00in /  0mm 232 W/m2
10:34 80.6 °F /  27 °C 71.7 °F /  22.1 °C 30.21in /  1022.9hPa WSW 0.3mph /  0.5km/h 7mph /  11.3km/h 74.3% 0.00in /  0mm 258 W/m2
10:39 80.5 °F /  26.9 °C 71.9 °F /  22.2 °C 30.21in /  1022.9hPa WSW 0.2mph /  0.3km/h 5mph /  8km/h 74.9% 0.00in /  0mm 258 W/m2
10:44 80.5 °F /  26.9 °C 71.7 °F /  22.1 °C 30.21in /  1022.9hPa WSW 0.2mph /  0.3km/h 5mph /  8km/h 74.7% 0.00in /  0mm 397 W/m2
10:49 80.6 °F /  27 °C 71.7 °F /  22.1 °C 30.21in /  1022.9hPa WSW 0.8mph /  1.3km/h 5mph /  8km/h 74.5% 0.00in /  0mm 192 W/m2
10:54 80.6 °F /  27 °C 71.4 °F /  21.9 °C 30.21in /  1022.9hPa WSW 0.2mph /  0.3km/h 5mph /  8km/h 73.6% 0.00in /  0mm 285 W/m2
10:59 80.5 °F /  26.9 °C 71.2 °F /  21.8 °C 30.21in /  1022.9hPa WSW 0.1mph /  0.2km/h 5mph /  8km/h 73.4% 0.00in /  0mm 207 W/m2
11:04 80.5 °F /  26.9 °C 71.5 °F /  21.9 °C 30.21in /  1022.9hPa WSW 0.2mph /  0.3km/h 5mph /  8km/h 74.2% 0.00in /  0mm 213 W/m2
11:09 80.5 °F /  26.9 °C 71.6 °F /  22 °C 30.21in /  1022.9hPa Calm   4mph /  6.4km/h 74.3% 0.00in /  0mm 327 W/m2
11:14 80.5 °F /  26.9 °C 71.7 °F /  22.1 °C 30.21in /  1022.9hPa WSW 0.3mph /  0.5km/h 5mph /  8km/h 74.7% 0.00in /  0mm 327 W/m2
11:19 80.5 °F /  26.9 °C 71.8 °F /  22.1 °C 30.21in /  1022.9hPa Calm   5mph /  8km/h 74.8% 0.00in /  0mm 271 W/m2
11:24 80.5 °F /  26.9 °C 72.1 °F /  22.3 °C 30.21in /  1022.9hPa Calm   5mph /  8km/h 75.7% 0.00in /  0mm 207 W/m2
11:29 80.5 °F /  26.9 °C 72.1 °F /  22.3 °C 30.21in /  1022.9hPa SW 0.7mph /  1.1km/h 6mph /  9.7km/h 75.7% 0.00in /  0mm 274 W/m2
11:34 80.6 °F /  27 °C 72.2 °F /  22.3 °C 30.21in /  1022.9hPa SSW 1.3mph /  2.1km/h 12mph /  19.3km/h 75.7% 0.00in /  0mm 817 W/m2
11:39 80.7 °F /  27.1 °C 72 °F /  22.2 °C 30.21in /  1022.9hPa SSE 0.9mph /  1.4km/h 12mph /  19.3km/h 75% 0.00in /  0mm 784 W/m2
11:44 80.8 °F /  27.1 °C 72.2 °F /  22.3 °C 30.21in /  1022.9hPa SSW 1.2mph /  1.9km/h 12mph /  19.3km/h 75.1% 0.00in /  0mm 380 W/m2
11:49 81 °F /  27.2 °C 72.2 °F /  22.3 °C 30.21in /  1022.9hPa South 0.6mph /  1km/h 12mph /  19.3km/h 74.9% 0.00in /  0mm 380 W/m2
11:54 81.2 °F /  27.3 °C 72.4 °F /  22.4 °C 30.20in /  1022.6hPa South 0.6mph /  1km/h 12mph /  19.3km/h 74.7% 0.00in /  0mm 325 W/m2
11:59 81.5 °F /  27.5 °C 72.8 °F /  22.7 °C 30.20in /  1022.6hPa SW 1.3mph /  2.1km/h 12mph /  19.3km/h 74.8% 0.00in /  0mm 947 W/m2
12:00 81.8 °F /  27.7 °C 72.7 °F /  22.6 °C 30.20in /  1022.6hPa Calm   12mph /  19.3km/h 74% 0.00in /  0mm 693 W/m2
12:09 82.5 °F /  28.1 °C 72.3 °F /  22.4 °C 30.20in /  1022.6hPa SSW 0.7mph /  1.1km/h 7mph /  11.3km/h 71.4% 0.00in /  0mm 679 W/m2
12:14 82.7 °F /  28.2 °C 72.7 °F /  22.6 °C 30.20in /  1022.6hPa SW 1.8mph /  2.9km/h 9mph /  14.5km/h 71.7% 0.00in /  0mm 947 W/m2
12:19 83.3 °F /  28.5 °C 73.2 °F /  22.9 °C 30.20in /  1022.6hPa SW 2.2mph /  3.5km/h 9mph /  14.5km/h 71.7% 0.00in /  0mm 947 W/m2
12:24 84 °F /  28.9 °C 73 °F /  22.8 °C 30.19in /  1022.2hPa SW 2mph /  3.2km/h 11mph /  17.7km/h 69.8% 0.00in /  0mm 942 W/m2
12:29 84.4 °F /  29.1 °C 73.4 °F /  23 °C 30.19in /  1022.2hPa SSW 1.5mph /  2.4km/h 11mph /  17.7km/h 69.5% 0.00in /  0mm 969 W/m2
12:34 84.7 °F /  29.3 °C 73.2 °F /  22.9 °C 30.19in /  1022.2hPa SSW 1.4mph /  2.3km/h 11mph /  17.7km/h 68.5% 0.00in /  0mm 506 W/m2
12:39 84.7 °F /  29.3 °C 73 °F /  22.8 °C 30.19in /  1022.2hPa SW 2.3mph /  3.7km/h 9mph /  14.5km/h 68.2% 0.00in /  0mm 772 W/m2
12:44 84.7 °F /  29.3 °C 72.8 °F /  22.7 °C 30.19in /  1022.2hPa SW 2.8mph /  4.5km/h 10mph /  16.1km/h 67.7% 0.00in /  0mm 824 W/m2
12:49 84.8 °F /  29.3 °C 72.4 °F /  22.4 °C 30.19in /  1022.2hPa SSW 2.2mph /  3.5km/h 13mph /  20.9km/h 66.4% 0.00in /  0mm 849 W/m2
12:54 84.7 °F /  29.3 °C 72.3 °F /  22.4 °C 30.19in /  1022.2hPa SSW 0.6mph /  1km/h 13mph /  20.9km/h 66.6% 0.00in /  0mm 918 W/m2
12:59 84.6 °F /  29.2 °C 72.7 °F /  22.6 °C 30.18in /  1021.9hPa SSW 0.9mph /  1.4km/h 13mph /  20.9km/h 67.7% 0.00in /  0mm 918 W/m2
13:04 84.4 °F /  29.1 °C 72.4 °F /  22.4 °C 30.18in /  1021.9hPa SSW 1.2mph /  1.9km/h 13mph /  20.9km/h 67.4% 0.00in /  0mm 740 W/m2
13:09 84.2 °F /  29 °C 72.6 °F /  22.6 °C 30.18in /  1021.9hPa SW 0.8mph /  1.3km/h 5mph /  8km/h 68.2% 0.00in /  0mm 374 W/m2
13:14 84.1 °F /  28.9 °C 72.6 °F /  22.6 °C 30.17in /  1021.6hPa SSW 2.2mph /  3.5km/h 7mph /  11.3km/h 68.5% 0.00in /  0mm 374 W/m2
13:19 84.3 °F /  29.1 °C 72.9 °F /  22.7 °C 30.17in /  1021.6hPa South 1.5mph /  2.4km/h 7mph /  11.3km/h 68.8% 0.00in /  0mm 995 W/m2
13:24 84.5 °F /  29.2 °C 72.8 °F /  22.7 °C 30.17in /  1021.6hPa SSW 1.4mph /  2.3km/h 7mph /  11.3km/h 68.2% 0.00in /  0mm 292 W/m2
13:29 84.3 °F /  29.1 °C 72.8 °F /  22.7 °C 30.17in /  1021.6hPa SSW 0.9mph /  1.4km/h 7mph /  11.3km/h 68.4% 0.00in /  0mm 983 W/m2
13:34 84.5 °F /  29.2 °C 73.7 °F /  23.2 °C 30.17in /  1021.6hPa South 1.1mph /  1.8km/h 7mph /  11.3km/h 70.1% 0.00in /  0mm 979 W/m2
13:39 84.9 °F /  29.4 °C 73.7 °F /  23.2 °C 30.17in /  1021.6hPa SSW 2.2mph /  3.5km/h 13mph /  20.9km/h 69.3% 0.00in /  0mm 930 W/m2
13:44 85.3 °F /  29.6 °C 73.3 °F /  22.9 °C 30.17in /  1021.6hPa SW 2.3mph /  3.7km/h 13mph /  20.9km/h 67.6% 0.00in /  0mm 962 W/m2
13:49 85.6 °F /  29.8 °C 73.6 °F /  23.1 °C 30.17in /  1021.6hPa SSW 1.9mph /  3.1km/h 13mph /  20.9km/h 67.5% 0.00in /  0mm 882 W/m2
13:54 85.6 °F /  29.8 °C 72.8 °F /  22.7 °C 30.16in /  1021.2hPa SSW 3.2mph /  5.1km/h 13mph /  20.9km/h 65.6% 0.00in /  0mm 926 W/m2
13:59 85.3 °F /  29.6 °C 72.4 °F /  22.4 °C 30.16in /  1021.2hPa SSW 2mph /  3.2km/h 13mph /  20.9km/h 65.4% 0.00in /  0mm 733 W/m2
14:04 84.9 °F /  29.4 °C 72.2 °F /  22.3 °C 30.16in /  1021.2hPa SSW 0.9mph /  1.4km/h 13mph /  20.9km/h 65.9% 0.00in /  0mm 441 W/m2
14:09 84.5 °F /  29.2 °C 72.6 °F /  22.6 °C 30.16in /  1021.2hPa SSW 0.7mph /  1.1km/h 6mph /  9.7km/h 67.4% 0.00in /  0mm 343 W/m2
14:14 84.2 °F /  29 °C 72.5 °F /  22.5 °C 30.16in /  1021.2hPa SSW 1mph /  1.6km/h 6mph /  9.7km/h 67.8% 0.00in /  0mm 977 W/m2
14:19 84.1 °F /  28.9 °C 72.6 °F /  22.6 °C 30.16in /  1021.2hPa SSW 1.7mph /  2.7km/h 7mph /  11.3km/h 68.3% 0.00in /  0mm 977 W/m2
14:24 84.1 °F /  28.9 °C 72.4 °F /  22.4 °C 30.16in /  1021.2hPa SW 1mph /  1.6km/h 7mph /  11.3km/h 68% 0.00in /  0mm 431 W/m2
14:29 84.3 °F /  29.1 °C 73.1 °F /  22.8 °C 30.16in /  1021.2hPa SW 0.8mph /  1.3km/h 7mph /  11.3km/h 69.3% 0.00in /  0mm 373 W/m2
14:34 84.6 °F /  29.2 °C 73 °F /  22.8 °C 30.16in /  1021.2hPa SSW 1.6mph /  2.6km/h 7mph /  11.3km/h 68.5% 0.00in /  0mm 373 W/m2
14:39 84.4 °F /  29.1 °C 72.5 °F /  22.5 °C 30.15in /  1020.9hPa SSW 2.4mph /  3.9km/h 6mph /  9.7km/h 67.6% 0.00in /  0mm 323 W/m2
14:44 84.1 °F /  28.9 °C 72.4 °F /  22.4 °C 30.15in /  1020.9hPa South 0.8mph /  1.3km/h 6mph /  9.7km/h 68.1% 0.00in /  0mm 380 W/m2
14:49 83.9 °F /  28.8 °C 72.3 °F /  22.4 °C 30.15in /  1020.9hPa SSW 2.1mph /  3.4km/h 6mph /  9.7km/h 68.1% 0.00in /  0mm 747 W/m2
14:54 83.8 °F /  28.8 °C 72.2 °F /  22.3 °C 30.15in /  1020.9hPa SSW 1.8mph /  2.9km/h 6mph /  9.7km/h 68% 0.00in /  0mm 301 W/m2
14:59 83.7 °F /  28.7 °C 72.5 °F /  22.5 °C 30.15in /  1020.9hPa South 2.1mph /  3.4km/h 7mph /  11.3km/h 69.1% 0.00in /  0mm 294 W/m2
15:04 83.5 °F /  28.6 °C 72.4 °F /  22.4 °C 30.15in /  1020.9hPa SW 2mph /  3.2km/h 7mph /  11.3km/h 69.5% 0.00in /  0mm 290 W/m2
15:09 83.3 °F /  28.5 °C 72.2 °F /  22.3 °C 30.15in /  1020.9hPa SSW 1.7mph /  2.7km/h 8mph /  12.9km/h 69.5% 0.00in /  0mm 290 W/m2
15:14 83.1 °F /  28.4 °C 72.3 °F /  22.4 °C 30.15in /  1020.9hPa SW 2.6mph /  4.2km/h 11mph /  17.7km/h 70% 0.00in /  0mm 265 W/m2
15:19 82.9 °F /  28.3 °C 72.2 °F /  22.3 °C 30.15in /  1020.9hPa SSW 1.8mph /  2.9km/h 11mph /  17.7km/h 70% 0.00in /  0mm 179 W/m2
15:24 82.7 °F /  28.2 °C 72.1 °F /  22.3 °C 30.15in /  1020.9hPa SW 2.4mph /  3.9km/h 11mph /  17.7km/h 70.5% 0.00in /  0mm 160 W/m2
15:29 82.3 °F /  27.9 °C 72 °F /  22.2 °C 30.15in /  1020.9hPa SSW 1.4mph /  2.3km/h 11mph /  17.7km/h 71% 0.00in /  0mm 188 W/m2
15:34 82.1 °F /  27.8 °C 72 °F /  22.2 °C 30.15in /  1020.9hPa SSW 1.9mph /  3.1km/h 11mph /  17.7km/h 71.5% 0.00in /  0mm 167 W/m2
15:39 81.9 °F /  27.7 °C 72 °F /  22.2 °C 30.15in /  1020.9hPa SSW 1.6mph /  2.6km/h 6mph /  9.7km/h 72% 0.00in /  0mm 176 W/m2
15:44 81.7 °F /  27.6 °C 72.2 °F /  22.3 °C 30.15in /  1020.9hPa South 1.8mph /  2.9km/h 7mph /  11.3km/h 72.9% 0.00in /  0mm 118 W/m2
15:49 81.6 °F /  27.6 °C 72.1 °F /  22.3 °C 30.15in /  1020.9hPa South 0.9mph /  1.4km/h 7mph /  11.3km/h 73% 0.00in /  0mm 167 W/m2
15:54 81.4 °F /  27.4 °C 72.2 °F /  22.3 °C 30.15in /  1020.9hPa South 1.2mph /  1.9km/h 7mph /  11.3km/h 73.7% 0.00in /  0mm 179 W/m2
15:59 81.4 °F /  27.4 °C 72.5 °F /  22.5 °C 30.15in /  1020.9hPa SSW 0.9mph /  1.4km/h 7mph /  11.3km/h 74.5% 0.00in /  0mm 274 W/m2
16:00 81.5 °F /  27.5 °C 72.8 °F /  22.7 °C 30.15in /  1020.9hPa Calm   7mph /  11.3km/h 75% 0.00in /  0mm 251 W/m2
16:09 81.5 °F /  27.5 °C 72.4 °F /  22.4 °C 30.15in /  1020.9hPa SW 2.4mph /  3.9km/h 13mph /  20.9km/h 73.7% 0.00in /  0mm 223 W/m2
16:14 81.6 °F /  27.6 °C 72.8 °F /  22.7 °C 30.15in /  1020.9hPa SSW 2.1mph /  3.4km/h 13mph /  20.9km/h 74.7% 0.00in /  0mm 209 W/m2
16:19 81.7 °F /  27.6 °C 72.6 °F /  22.6 °C 30.15in /  1020.9hPa SW 2.5mph /  4km/h 13mph /  20.9km/h 74% 0.00in /  0mm 204 W/m2
16:24 81.6 °F /  27.6 °C 72.5 °F /  22.5 °C 30.15in /  1020.9hPa South 3.4mph /  5.5km/h 13mph /  20.9km/h 74% 0.00in /  0mm 230 W/m2
16:29 81.4 °F /  27.4 °C 72.6 °F /  22.6 °C 30.15in /  1020.9hPa South 2.6mph /  4.2km/h 13mph /  20.9km/h 74.7% 0.00in /  0mm 269 W/m2
16:34 81.1 °F /  27.3 °C 72.9 °F /  22.7 °C 30.15in /  1020.9hPa SSW 1.3mph /  2.1km/h 13mph /  20.9km/h 76% 0.00in /  0mm 207 W/m2
16:39 81.1 °F /  27.3 °C 72.9 °F /  22.7 °C 30.15in /  1020.9hPa SW 1.3mph /  2.1km/h 7mph /  11.3km/h 76.2% 0.00in /  0mm 199 W/m2
16:44 81.2 °F /  27.3 °C 72.8 °F /  22.7 °C 30.15in /  1020.9hPa SSW 0.8mph /  1.3km/h 7mph /  11.3km/h 75.7% 0.00in /  0mm 185 W/m2
16:49 81.3 °F /  27.4 °C 72.8 °F /  22.7 °C 30.15in /  1020.9hPa SSW 1.6mph /  2.6km/h 7mph /  11.3km/h 75.3% 0.00in /  0mm 167 W/m2
16:54 81.4 °F /  27.4 °C 72.6 °F /  22.6 °C 30.15in /  1020.9hPa SW 1.7mph /  2.7km/h 7mph /  11.3km/h 74.8% 0.00in /  0mm 149 W/m2
16:59 81.3 °F /  27.4 °C 72.6 °F /  22.6 °C 30.15in /  1020.9hPa SSW 1mph /  1.6km/h 10mph /  16.1km/h 74.9% 0.00in /  0mm 151 W/m2
17:04 81.3 °F /  27.4 °C 72.7 °F /  22.6 °C 30.14in /  1020.5hPa South 0.7mph /  1.1km/h 10mph /  16.1km/h 75.2% 0.00in /  0mm 158 W/m2
17:09 81.2 °F /  27.3 °C 72.5 °F /  22.5 °C 30.14in /  1020.5hPa SW 1.1mph /  1.8km/h 6mph /  9.7km/h 75% 0.00in /  0mm 183 W/m2
17:14 81.2 °F /  27.3 °C 72.5 °F /  22.5 °C 30.14in /  1020.5hPa SSW 1.8mph /  2.9km/h 11mph /  17.7km/h 75% 0.00in /  0mm 190 W/m2
17:19 81.4 °F /  27.4 °C 72.8 °F /  22.7 °C 30.13in /  1020.2hPa SW 0.6mph /  1km/h 11mph /  17.7km/h 75.2% 0.00in /  0mm 174 W/m2
17:24 81.7 °F /  27.6 °C 72.9 °F /  22.7 °C 30.14in /  1020.5hPa SSW 1.5mph /  2.4km/h 11mph /  17.7km/h 74.7% 0.00in /  0mm 116 W/m2
17:29 81.8 °F /  27.7 °C 72.7 °F /  22.6 °C 30.14in /  1020.5hPa South 1.9mph /  3.1km/h 11mph /  17.7km/h 73.8% 0.00in /  0mm 86 W/m2
17:34 81.7 °F /  27.6 °C 72.4 °F /  22.4 °C 30.14in /  1020.5hPa SW 1.6mph /  2.6km/h 11mph /  17.7km/h 73.5% 0.00in /  0mm 97 W/m2
17:39 81.4 °F /  27.4 °C 72.4 °F /  22.4 °C 30.13in /  1020.2hPa SSW 1.3mph /  2.1km/h 9mph /  14.5km/h 74.2% 0.00in /  0mm 74 W/m2
17:44 81.1 °F /  27.3 °C 72.3 °F /  22.4 °C 30.13in /  1020.2hPa SSE 0.9mph /  1.4km/h 9mph /  14.5km/h 74.6% 0.00in /  0mm 69 W/m2
17:49 80.8 °F /  27.1 °C 72.1 °F /  22.3 °C 30.13in /  1020.2hPa South 1.4mph /  2.3km/h 9mph /  14.5km/h 75% 0.00in /  0mm 42 W/m2
17:54 80.5 °F /  26.9 °C 71.8 °F /  22.1 °C 30.13in /  1020.2hPa South 1mph /  1.6km/h 9mph /  14.5km/h 75% 0.00in /  0mm 63 W/m2
17:59 80.2 °F /  26.8 °C 71.9 °F /  22.2 °C 30.13in /  1020.2hPa SSW 1.7mph /  2.7km/h 9mph /  14.5km/h 76% 0.00in /  0mm 72 W/m2
18:04 80 °F /  26.7 °C 71.9 °F /  22.2 °C 30.13in /  1020.2hPa SSW 1mph /  1.6km/h 9mph /  14.5km/h 76.4% 0.00in /  0mm 91 W/m2
18:09 80 °F /  26.7 °C 72.1 °F /  22.3 °C 30.13in /  1020.2hPa SSW 0.5mph /  0.8km/h 6mph /  9.7km/h 77% 0.00in /  0mm 118 W/m2
18:14 80 °F /  26.7 °C 72.2 °F /  22.3 °C 30.13in /  1020.2hPa SSW 0.1mph /  0.2km/h 6mph /  9.7km/h 77% 0.00in /  0mm 111 W/m2
18:19 80 °F /  26.7 °C 72.2 °F /  22.3 °C 30.13in /  1020.2hPa South 1.2mph /  1.9km/h 7mph /  11.3km/h 77% 0.00in /  0mm 123 W/m2
18:24 80 °F /  26.7 °C 72.2 °F /  22.3 °C 30.13in /  1020.2hPa SSW 0.7mph /  1.1km/h 7mph /  11.3km/h 77% 0.00in /  0mm 104 W/m2
18:29 80 °F /  26.7 °C 72.2 °F /  22.3 °C 30.13in /  1020.2hPa WSW 0.6mph /  1km/h 7mph /  11.3km/h 77% 0.00in /  0mm 93 W/m2
18:34 80 °F /  26.7 °C 72.1 °F /  22.3 °C 30.13in /  1020.2hPa SW 0.9mph /  1.4km/h 7mph /  11.3km/h 77% 0.00in /  0mm 65 W/m2
18:39 79.8 °F /  26.6 °C 72 °F /  22.2 °C 30.13in /  1020.2hPa South 1.1mph /  1.8km/h 6mph /  9.7km/h 77% 0.00in /  0mm 46 W/m2
18:44 79.7 °F /  26.5 °C 71.8 °F /  22.1 °C 30.13in /  1020.2hPa SSW 2mph /  3.2km/h 8mph /  12.9km/h 77% 0.00in /  0mm 46 W/m2
18:49 79.5 °F /  26.4 °C 72 °F /  22.2 °C 30.13in /  1020.2hPa SSW 0.4mph /  0.6km/h 8mph /  12.9km/h 77.9% 0.00in /  0mm 56 W/m2
18:54 79.3 °F /  26.3 °C 71.9 °F /  22.2 °C 30.13in /  1020.2hPa SSW 0.6mph /  1km/h 8mph /  12.9km/h 78% 0.00in /  0mm 54 W/m2
18:59 79.3 °F /  26.3 °C 71.8 °F /  22.1 °C 30.13in /  1020.2hPa SSW 1.3mph /  2.1km/h 8mph /  12.9km/h 78% 0.00in /  0mm 40 W/m2
19:04 79.1 °F /  26.2 °C 71.7 °F /  22.1 °C 30.13in /  1020.2hPa South 1.4mph /  2.3km/h 8mph /  12.9km/h 78% 0.00in /  0mm 30 W/m2
19:09 79.1 °F /  26.2 °C 71.8 °F /  22.1 °C 30.13in /  1020.2hPa Calm   7mph /  11.3km/h 78.4% 0.00in /  0mm 21 W/m2
19:14 79 °F /  26.1 °C 71.9 °F /  22.2 °C 30.13in /  1020.2hPa SSW 0.1mph /  0.2km/h 7mph /  11.3km/h 79% 0.00in /  0mm 23 W/m2
19:19 78.9 °F /  26.1 °C 71.9 °F /  22.2 °C 30.13in /  1020.2hPa South 1.1mph /  1.8km/h 7mph /  11.3km/h 79% 0.00in /  0mm 21 W/m2
19:20 78.9 °F /  26.1 °C 71.8 °F /  22.1 °C 30.13in /  1020.2hPa South 2.9mph /  4.7km/h 7mph /  11.3km/h 79% 0.00in /  0mm 21 W/m2
19:30 78.6 °F /  25.9 °C 71.9 °F /  22.2 °C 30.13in /  1020.2hPa South 1mph /  1.6km/h 7mph /  11.3km/h 80% 0.00in /  0mm 20 W/m2
20:04 77.7 °F /  25.4 °C 71.4 °F /  21.9 °C 30.13in /  1020.2hPa SSW 0.7mph /  1.1km/h 7mph /  11.3km/h 80.9% 0.00in /  0mm 20 W/m2
20:09 77.6 °F /  25.3 °C 71.3 °F /  21.8 °C 30.12in /  1019.9hPa SSW 0.8mph /  1.3km/h 5mph /  8km/h 81% 0.00in /  0mm 5 W/m2
20:14 77.5 °F /  25.3 °C 71.3 °F /  21.8 °C 30.12in /  1019.9hPa SW 0.8mph /  1.3km/h 5mph /  8km/h 81.3% 0.00in /  0mm 5 W/m2
20:19 77.4 °F /  25.2 °C 71.4 °F /  21.9 °C 30.12in /  1019.9hPa SW 0.5mph /  0.8km/h 5mph /  8km/h 82% 0.00in /  0mm 0 W/m2
20:24 77.3 °F /  25.2 °C 71.3 °F /  21.8 °C 30.12in /  1019.9hPa SW 0.9mph /  1.4km/h 5mph /  8km/h 82% 0.00in /  0mm 0 W/m2
20:29 77.1 °F /  25.1 °C 71.2 °F /  21.8 °C 30.12in /  1019.9hPa SW 0.1mph /  0.2km/h 5mph /  8km/h 82% 0.00in /  0mm 0 W/m2
20:34 77.1 °F /  25.1 °C 71.2 °F /  21.8 °C 30.13in /  1020.2hPa SW 0.4mph /  0.6km/h 5mph /  8km/h 82% 0.00in /  0mm 0 W/m2
20:39 77 °F /  25 °C 71.1 °F /  21.7 °C 30.13in /  1020.2hPa Calm   4mph /  6.4km/h 82.2% 0.00in /  0mm 0 W/m2
20:44 76.9 °F /  24.9 °C 71.3 °F /  21.8 °C 30.12in /  1019.9hPa SW 0.2mph /  0.3km/h 4mph /  6.4km/h 83% 0.00in /  0mm 0 W/m2
20:49 76.8 °F /  24.9 °C 71.2 °F /  21.8 °C 30.12in /  1019.9hPa SSW 0.7mph /  1.1km/h 7mph /  11.3km/h 83% 0.00in /  0mm 0 W/m2
20:54 76.6 °F /  24.8 °C 71.1 °F /  21.7 °C 30.12in /  1019.9hPa SSW 0.1mph /  0.2km/h 7mph /  11.3km/h 83% 0.00in /  0mm 0 W/m2
20:59 76.5 °F /  24.7 °C 71.1 °F /  21.7 °C 30.13in /  1020.2hPa SSW 0.1mph /  0.2km/h 7mph /  11.3km/h 83.3% 0.00in /  0mm 0 W/m2
21:04 76.4 °F /  24.7 °C 71.2 °F /  21.8 °C 30.13in /  1020.2hPa SSW 0.5mph /  0.8km/h 7mph /  11.3km/h 84% 0.00in /  0mm 0 W/m2
21:09 76.3 °F /  24.6 °C 71.1 °F /  21.7 °C 30.13in /  1020.2hPa SSW 0.5mph /  0.8km/h 5mph /  8km/h 84% 0.00in /  0mm 0 W/m2
21:14 76.2 °F /  24.6 °C 71 °F /  21.7 °C 30.13in /  1020.2hPa SW 0.7mph /  1.1km/h 7mph /  11.3km/h 84% 0.00in /  0mm 0 W/m2
21:19 76.1 °F /  24.5 °C 71 °F /  21.7 °C 30.13in /  1020.2hPa SW 0.6mph /  1km/h 7mph /  11.3km/h 84% 0.00in /  0mm 0 W/m2
21:24 76.1 °F /  24.5 °C 71 °F /  21.7 °C 30.13in /  1020.2hPa SSW 1mph /  1.6km/h 7mph /  11.3km/h 84.3% 0.00in /  0mm 0 W/m2
21:29 76 °F /  24.4 °C 71.2 °F /  21.8 °C 30.13in /  1020.2hPa SSW 0.3mph /  0.5km/h 7mph /  11.3km/h 85% 0.00in /  0mm 0 W/m2
21:34 76 °F /  24.4 °C 71.2 °F /  21.8 °C 30.13in /  1020.2hPa SSW 0.5mph /  0.8km/h 7mph /  11.3km/h 85% 0.00in /  0mm 0 W/m2
21:39 75.9 °F /  24.4 °C 71.1 °F /  21.7 °C 30.13in /  1020.2hPa SSW 0.1mph /  0.2km/h 4mph /  6.4km/h 85% 0.00in /  0mm 0 W/m2
21:44 75.9 °F /  24.4 °C 71.1 °F /  21.7 °C 30.13in /  1020.2hPa SSW 0.6mph /  1km/h 4mph /  6.4km/h 85% 0.00in /  0mm 0 W/m2
21:49 75.9 °F /  24.4 °C 71.1 °F /  21.7 °C 30.13in /  1020.2hPa Calm   4mph /  6.4km/h 85% 0.00in /  0mm 0 W/m2
21:54 75.8 °F /  24.3 °C 71 °F /  21.7 °C 30.13in /  1020.2hPa SSW 1.6mph /  2.6km/h 6mph /  9.7km/h 85% 0.00in /  0mm 0 W/m2
21:59 75.8 °F /  24.3 °C 71 °F /  21.7 °C 30.13in /  1020.2hPa South 1mph /  1.6km/h 6mph /  9.7km/h 85% 0.00in /  0mm 0 W/m2
22:04 75.8 °F /  24.3 °C 71 °F /  21.7 °C 30.14in /  1020.5hPa SSW 1.1mph /  1.8km/h 7mph /  11.3km/h 85% 0.00in /  0mm 0 W/m2
22:09 75.7 °F /  24.3 °C 70.8 °F /  21.6 °C 30.13in /  1020.2hPa SW 0.5mph /  0.8km/h 7mph /  11.3km/h 85% 0.00in /  0mm 0 W/m2
22:14 75.6 °F /  24.2 °C 70.7 °F /  21.5 °C 30.13in /  1020.2hPa SW 1mph /  1.6km/h 10mph /  16.1km/h 85% 0.00in /  0mm 0 W/m2
22:19 75.4 °F /  24.1 °C 70.7 °F /  21.5 °C 30.13in /  1020.2hPa SW 0.9mph /  1.4km/h 10mph /  16.1km/h 85.2% 0.00in /  0mm 0 W/m2
22:24 75.3 °F /  24.1 °C 70.6 °F /  21.4 °C 30.13in /  1020.2hPa SW 0.2mph /  0.3km/h 10mph /  16.1km/h 85.4% 0.00in /  0mm 0 W/m2
22:29 75.2 °F /  24 °C 70.7 °F /  21.5 °C 30.14in /  1020.5hPa SW 0.3mph /  0.5km/h 10mph /  16.1km/h 86% 0.00in /  0mm 0 W/m2
22:34 75.1 °F /  23.9 °C 70.6 °F /  21.4 °C 30.14in /  1020.5hPa Calm   10mph /  16.1km/h 86% 0.00in /  0mm 0 W/m2
22:39 75.1 °F /  23.9 °C 70.6 °F /  21.4 °C 30.14in /  1020.5hPa Calm     86% 0.00in /  0mm 0 W/m2
22:44 75 °F /  23.9 °C 70.5 °F /  21.4 °C 30.14in /  1020.5hPa SW 0.1mph /  0.2km/h 2mph /  3.2km/h 86% 0.00in /  0mm 0 W/m2
22:49 74.9 °F /  23.8 °C 70.7 °F /  21.5 °C 30.14in /  1020.5hPa SW 0.1mph /  0.2km/h 2mph /  3.2km/h 86.7% 0.00in /  0mm 0 W/m2
22:54 74.8 °F /  23.8 °C 70.7 °F /  21.5 °C 30.14in /  1020.5hPa Calm   2mph /  3.2km/h 87% 0.00in /  0mm 0 W/m2
22:59 74.8 °F /  23.8 °C 70.7 °F /  21.5 °C 30.14in /  1020.5hPa SW 0.1mph /  0.2km/h 3mph /  4.8km/h 87% 0.00in /  0mm 0 W/m2
23:04 74.7 °F /  23.7 °C 70.6 °F /  21.4 °C 30.14in /  1020.5hPa SW 0.5mph /  0.8km/h 4mph /  6.4km/h 87% 0.00in /  0mm 0 W/m2
23:09 74.7 °F /  23.7 °C 70.5 °F /  21.4 °C 30.13in /  1020.2hPa Calm   4mph /  6.4km/h 87% 0.00in /  0mm 0 W/m2
23:14 74.6 °F /  23.7 °C 70.5 °F /  21.4 °C 30.13in /  1020.2hPa SW 0.3mph /  0.5km/h 5mph /  8km/h 87% 0.00in /  0mm 0 W/m2
23:19 74.6 °F /  23.7 °C 70.5 °F /  21.4 °C 30.13in /  1020.2hPa SW 0.4mph /  0.6km/h 5mph /  8km/h 87% 0.00in /  0mm 0 W/m2
23:24 74.5 °F /  23.6 °C 70.4 °F /  21.3 °C 30.13in /  1020.2hPa SW 0.2mph /  0.3km/h 5mph /  8km/h 87% 0.00in /  0mm 0 W/m2
23:29 74.4 °F /  23.6 °C 70.3 °F /  21.3 °C 30.14in /  1020.5hPa Calm   5mph /  8km/h 87% 0.00in /  0mm 0 W/m2
23:30 74.4 °F /  23.6 °C 70.3 °F /  21.3 °C 30.14in /  1020.5hPa Calm   5mph /  8km/h 87% 0.00in /  0mm 0 W/m2
Hartford County Weather
Compliments of Weather Underground - 2 mb